CAPE
192 457 1659 1914 1670 1699 1825 1740 1507 1614 1275 1034 1008 1196 1152 1238 1149 1024 1025 753 731 754 330 72 65 1 0 0 0 21 100 136 174 486 507 606 320 251 346 544 629 551 787
163 369 1501 1879 1907 1785 1900 1901 1718 1606 1253 982 908 978 872 707 841 953 1049 1010 862 391 157 28 18 0 0 0 0 0 28 0 0 2 66 65 309 40 77 284 578 237 562
180 305 1388 1743 1929 1950 1947 1979 1721 1513 1122 964 757 583 516 479 473 609 971 1067 663 290 157 24 11 0 0 0 0 0 0 0 0 0 1 1 0 47 39 77 159 46 45
220 520 1283 1566 1954 2070 2128 2076 1731 1435 1209 989 801 698 617 700 506 718 1125 971 726 499 443 59 1 0 0 0 0 0 0 0 0 0 0 56 32 165 109 52 18 7 5
189 633 1131 1413 1914 2099 1992 2029 1784 1582 1427 1032 909 811 903 927 883 648 912 942 625 394 275 23 0 0 0 0 0 0 0 0 0 0 65 115 105 195 163 54 14 2 20
278 483 945 1362 1947 2104 1994 2017 1787 1440 1365 1280 1075 952 1137 1138 941 993 982 854 476 307 153 12 0 0 0 0 0 0 0 0 0 1 33 66 163 248 67 71 54 48 75
250 490 727 1245 1736 1979 1986 1926 1890 1686 1590 1538 1244 1268 1423 1065 869 887 788 474 392 150 9 10 0 0 0 0 0 0 0 0 0 0 7 9 0 0 0 44 135 96 38
81 398 514 996 1491 1667 1748 1825 1802 1806 1721 1641 1602 1577 1430 1121 679 322 277 264 113 3 2 3 1 0 0 0 0 0 0 0 0 0 0 0 0 0 0 0 0 0 2
137 328 452 580 1155 1522 1563 1569 1569 1530 1540 1479 1378 1339 1257 1075 887 231 117 44 5 0 0 2 1 0 0 0 0 0 0 0 0 0 0 0 0 0 0 0 0 0 0
0 29 296 458 713 1142 1398 1503 1472 1399 1322 1241 1146 1226 1082 1027 711 410 124 28 4 0 0 0 0 0 0 0 0 0 0 0 0 0 0 0 0 0 0 0 0 0 0
0 0 0 270 626 1278 1530 1174 1384 1334 1214 1027 788 852 769 824 599 385 271 109 42 1 0 0 0 0 0 0 0 0 0 0 0 0 0 0 0 0 0 0 0 0 0
0 0 0 0 180 556 1050 1475 1122 1360 1046 918 702 511 562 503 493 207 238 136 81 11 1 0 0 0 0 0 0 0 0 0 0 0 0 0 0 0 0 0 0 0 0
0 0 0 0 0 102 818 784 1080 1471 913 841 829 536 381 399 435 253 168 125 51 31 135 3 0 0 0 0 0 0 0 0 0 0 0 0 0 0 0 0 0 0 0
0 0 0 0 0 0 67 797 920 1137 1086 879 307 418 436 409 333 323 122 44 30 12 13 8 3 0 0 0 0 0 0 0 0 0 0 0 0 0 0 0 0 0 0
0 0 0 0 0 0 0 86 594 600 681 613 516 393 325 298 196 138 99 72 27 14 13 13 1 0 0 0 0 0 0 0 0 0 0 0 0 0 0 0 0 0 0
0 0 0 0 0 0 0 0 36 339 542 494 296 105 201 450 291 149 24 38 45 35 16 10 6 2 0 0 0 0 0 0 0 0 0 0 0 0 0 0 0 0 1
0 0 0 0 0 0 0 2 4 47 208 176 147 134 178 159 219 189 42 19 55 53 45 36 8 7 4 0 0 0 0 0 0 0 0 0 0 0 0 0 0 0 0
0 0 0 0 0 0 0 1 3 12 32 75 68 80 94 47 48 109 53 60 50 31 32 44 26 18 8 1 1 1 0 0 0 0 0 0 0 0 0 0 0 0 0
0 0 0 0 0 0 0 1 3 4 12 36 35 49 47 45 46 46 45 31 44 28 31 31 14 16 37 0 2 2 0 0 0 0 0 0 0 0 0 0 0 0 0
0 0 0 0 0 0 0 3 6 8 5 3 2 7 21 32 19 30 19 16 18 20 6 14 14 9 9 5 2 2 0 0 0 0 0 0 0 0 0 0 0 0 0
0 0 0 0 0 0 0 0 1 3 0 0 0 0 2 1 1 6 7 2 2 1 6 2 8 6 9 4 1 0 0 0 0 0 0 0 0 0 0 0 0 0 0
0 0 0 0 0 0 0 0 0 0 0 1 0 0 0 0 0 0 1 3 1 0 0 0 0 0 0 1 2 1 0 0 0 0 0 0 0 0 0 0 0 0 0
0 0 0 0 0 0 0 0 0 0 0 0 0 0 0 0 0 0 0 0 0 0 0 0 0 0 0 0 0 0 0 0 0 0 0 0 0 0 0 0 0 0 0
0 0 0 0 0 0 0 0 0 0 0 0 0 0 0 0 0 0 0 0 0 0 0 0 0 0 0 0 0 0 0 0 0 0 0 0 0 0 0 0 0 0 0
0 0 0 0 0 0 0 0 0 0 0 0 0 0 0 0 0 0 0 0 0 0 0 0 0 0 0 0 0 0 0 0 0 0 0 0 0 0 0 0 0 0 0
0 0 0 0 0 0 0 0 0 0 0 0 0 0 0 0 0 0 0 0 0 0 0 0 0 0 0 0 0 0 0 0 0 0 0 0 0 0 0 0 0 0 0
CIN
-357 -217 -3 -0 -0 -0 -0 -0 -3 -0 -4 -7 -9 -0 -0 -0 -0 -2 -1 -1 -4 -3 -22 -78 -85 -0 -0 -0 -0 -77 -31 -33 -34 -0 -0 -0 -0 -3 -0 -0 -2 -0 -0
-380 -268 -34 -1 -0 -0 -0 -0 -0 -0 -12 -21 -19 -4 -4 -10 -2 -1 -0 -1 -0 -6 -25 -82 -105 -0 -0 -0 -0 -1 -36 -0 -0 -1 -31 -37 -0 -19 -6 -0 -0 -0 -0
-403 -315 -66 -10 -0 -0 -0 -0 -0 -0 -21 -29 -41 -52 -48 -44 -32 -7 -1 -0 -0 -9 -25 -110 -130 -0 -0 -0 -0 -0 -0 -0 -0 -0 -35 -11 -3 -14 -14 -6 -3 -40 -31
-370 -305 -85 -35 -1 -0 -0 -0 -0 -3 -12 -23 -32 -32 -32 -15 -26 -0 -0 -0 -0 -0 -4 -61 -12 -0 -0 -0 -0 -0 -0 -0 -0 -0 -0 -12 -31 -0 -1 -16 -61 -49 -41
-435 -284 -129 -54 -6 -0 -1 -1 -0 -0 -2 -21 -21 -20 -2 -0 -0 -2 -0 -0 -1 -1 -14 -102 -0 -0 -0 -0 -0 -0 -0 -0 -0 -0 -44 -7 -13 -1 -6 -38 -28 -16 -44
-412 -317 -159 -56 -1 -0 -1 -1 -0 -1 -1 -1 -5 -4 -0 -0 -0 -0 -0 -2 -12 -21 -76 -73 -0 -0 -0 -0 -0 -0 -0 -0 -0 -42 -93 -59 -14 -8 -61 -59 -70 -77 -63
-414 -298 -202 -69 -1 -0 -1 -2 -0 -0 -0 -0 -0 -0 -0 -0 -0 -0 -1 -9 -20 -88 -5 -1 -0 -0 -0 -0 -0 -0 -0 -0 -0 -0 -127 -81 -0 -0 -0 -42 -42 -79 -10
-505 -338 -276 -129 -21 -1 -2 -2 -1 -0 -0 -0 -0 -0 -0 -0 -2 -39 -56 -46 -100 -2 -0 -0 -0 -0 -0 -0 -0 -0 -0 -0 -0 -0 -0 -0 -0 -0 -0 -0 -0 -0 -2
-435 -321 -259 -207 -65 -11 -5 -2 -1 -1 -0 -0 -1 -1 -2 -1 -1 -75 -125 -148 -195 -0 -0 -0 -0 -0 -0 -0 -0 -0 -0 -0 -0 -0 -0 -0 -0 -0 -0 -0 -0 -0 -0
-0 -341 -309 -249 -143 -21 -2 -0 -0 -1 -1 -2 -4 -2 -2 -1 -6 -13 -83 -134 -34 -0 -0 -0 -0 -0 -0 -0 -0 -0 -0 -0 -0 -0 -0 -0 -0 -0 -0 -0 -0 -0 -0
-0 -0 -0 -299 -168 -15 -0 -9 -0 -1 -2 -6 -12 -8 -9 -4 -16 -25 -20 -68 -94 -47 -0 -0 -0 -0 -0 -0 -0 -0 -0 -0 -0 -0 -0 -0 -0 -0 -0 -0 -0 -0 -0
-0 -0 -0 -0 -332 -163 -46 -0 -6 -0 -1 -3 -16 -51 -21 -43 -38 -73 -35 -79 -91 -57 -0 -0 -0 -0 -0 -0 -0 -0 -0 -0 -0 -0 -0 -0 -0 -0 -0 -0 -0 -0 -0
-0 -0 -0 -0 -0 -343 -78 -62 -12 -0 -5 -6 -13 -26 -40 -36 -30 -36 -53 -75 -125 -127 -50 -0 -0 -0 -0 -0 -0 -0 -0 -0 -0 -0 -0 -0 -0 -0 -0 -0 -0 -0 -0
-0 -0 -0 -0 -0 -0 -293 -56 -14 -0 -0 -1 -82 -49 -31 -28 -39 -33 -68 -129 -131 -22 -127 -0 -0 -0 -0 -0 -0 -0 -0 -0 -0 -0 -0 -0 -0 -0 -0 -0 -0 -0 -0
-0 -0 -0 -0 -0 -0 -0 -254 -35 -3 -0 -9 -25 -43 -55 -49 -78 -91 -96 -101 -90 -1 -0 -0 -0 -0 -0 -0 -0 -0 -0 -0 -0 -0 -0 -0 -0 -0 -0 -0 -0 -0 -0
-0 -0 -0 -0 -0 -0 -0 -0 -168 -14 -0 -0 -37 -102 -78 -16 -36 -77 -100 -15 -5 -1 -1 -0 -0 -1 -0 -0 -0 -0 -0 -0 -0 -0 -0 -0 -0 -0 -0 -0 -0 -0 -0
-0 -0 -0 -0 -0 -0 -0 -0 -9 -63 -19 -32 -32 -47 -52 -69 -39 -43 -76 -13 -104 -1 -2 -2 -0 -0 -0 -0 -0 -0 -0 -0 -0 -0 -0 -0 -0 -0 -0 -0 -0 -0 -0
-0 -0 -0 -0 -0 -0 -0 -0 -0 -20 -10 -57 -0 -50 -45 -0 -0 -64 -0 -0 -0 -2 -1 -0 -3 -6 -0 -0 -0 -0 -0 -0 -0 -0 -0 -0 -0 -0 -0 -0 -0 -0 -0
-0 -0 -0 -0 -0 -0 -0 -0 -0 -0 -3 -0 -0 -0 -0 -0 -0 -0 -0 -0 -0 -0 -0 -0 -0 -2 -0 -0 -0 -0 -0 -0 -0 -0 -0 -0 -0 -0 -0 -0 -0 -0 -0
-0 -0 -0 -0 -0 -0 -0 -0 -0 -0 -0 -0 -0 -1 -1 -0 -0 -1 -0 -1 -1 -0 -0 -0 -0 -0 -0 -0 -0 -0 -0 -0 -0 -0 -0 -0 -0 -0 -0 -0 -0 -0 -0
-0 -0 -0 -0 -0 -0 -0 -0 -0 -0 -1 -0 -0 -0 -0 -0 -0 -0 -0 -8 -0 -0 -0 -0 -0 -0 -0 -0 -0 -0 -0 -0 -0 -0 -0 -0 -0 -0 -0 -0 -0 -0 -0
-0 -0 -0 -0 -0 -0 -0 -0 -0 -0 -0 -1 -0 -0 -0 -0 -0 -0 -0 -0 -0 -0 -0 -0 -0 -0 -0 -0 -0 -0 -0 -0 -0 -0 -0 -0 -0 -0 -0 -0 -0 -0 -0
-0 -0 -0 -0 -0 -0 -0 -0 -0 -0 -0 -0 -0 -0 -0 -0 -0 -0 -0 -0 -0 -0 -0 -0 -0 -0 -0 -0 -0 -0 -0 -0 -0 -0 -0 -0 -0 -0 -0 -0 -0 -0 -0
-0 -0 -0 -0 -0 -0 -0 -0 -0 -0 -0 -0 -0 -0 -0 -0 -0 -0 -0 -0 -0 -0 -0 -0 -0 -0 -0 -0 -0 -0 -0 -0 -0 -0 -0 -0 -0 -0 -0 -0 -0 -0 -0
-0 -0 -0 -0 -0 -0 -0 -0 -0 -0 -0 -0 -0 -0 -0 -0 -0 -0 -0 -0 -0 -0 -0 -0 -0 -0 -0 -0 -0 -0 -0 -0 -0 -0 -0 -0 -0 -0 -0 -0 -0 -0 -0
-0 -0 -0 -0 -0 -0 -0 -0 -0 -0 -0 -0 -0 -0 -0 -0 -0 -0 -0 -0 -0 -0 -0 -0 -0 -0 -0 -0 -0 -0 -0 -0 -0 -0 -0 -0 -0 -0 -0 -0 -0 -0 -0
Wind_Speed
13 12 15 16 15 12 13 9 11 16 18 19 20 21 22 21 20 20 19 17 17 22 27 nan nan nan nan nan nan nan 24 25 27 26 25 26 24 21 20 18 15 13 18
10 12 15 15 16 15 13 10 9 9 16 19 20 19 18 17 17 17 16 14 22 24 23 nan nan nan nan nan nan nan nan nan nan nan nan nan 22 nan nan 18 16 16 20
15 16 14 15 16 14 12 11 10 9 9 9 12 13 13 14 14 14 12 18 20 22 18 nan nan nan nan nan nan nan nan nan nan nan nan nan nan nan nan nan 21 nan nan
15 16 17 16 15 15 16 13 10 8 7 6 6 6 7 9 10 11 12 15 16 19 22 nan nan nan nan nan nan nan nan nan nan nan nan nan nan 20 20 nan nan nan nan
14 13 15 19 20 17 14 16 14 12 11 9 7 6 6 7 9 9 9 11 15 16 21 nan nan nan nan nan nan nan nan nan nan nan nan 18 18 20 25 nan nan nan nan
12 12 13 17 16 17 16 15 15 13 11 11 11 10 10 12 12 10 11 12 14 20 20 nan nan nan nan nan nan nan nan nan nan nan nan nan 18 20 nan nan nan nan nan
12 12 12 16 16 15 15 16 15 14 13 12 11 11 14 17 16 16 14 12 12 20 nan nan nan nan nan nan nan nan nan nan nan nan nan nan nan nan nan nan 22 nan nan
nan 13 14 14 15 15 16 15 15 15 15 14 13 12 18 19 18 18 16 11 14 nan nan nan nan nan nan nan nan nan nan nan nan nan nan nan nan nan nan nan nan nan nan
11 11 11 12 12 15 16 16 16 13 13 13 13 14 15 18 20 20 20 nan nan nan nan nan nan nan nan nan nan nan nan nan nan nan nan nan nan nan nan nan nan nan nan
nan nan 9 8 12 13 13 16 18 17 17 14 13 12 14 17 23 21 22 nan nan nan nan nan nan nan nan nan nan nan nan nan nan nan nan nan nan nan nan nan nan nan nan
nan nan nan 12 13 11 10 14 15 18 19 19 21 18 17 20 21 23 21 21 nan nan nan nan nan nan nan nan nan nan nan nan nan nan nan nan nan nan nan nan nan nan nan
nan nan nan nan 15 18 18 17 16 16 19 21 23 23 25 25 28 29 24 24 nan nan nan nan nan nan nan nan nan nan nan nan nan nan nan nan nan nan nan nan nan nan nan
nan nan nan nan nan 19 22 25 26 26 26 23 23 26 28 31 32 34 33 31 nan nan 30 nan nan nan nan nan nan nan nan nan nan nan nan nan nan nan nan nan nan nan nan
nan nan nan nan nan nan nan 25 31 31 31 31 30 31 30 30 32 34 35 nan nan nan nan nan nan nan nan nan nan nan nan nan nan nan nan nan nan nan nan nan nan nan nan
nan nan nan nan nan nan nan nan 30 32 33 34 33 36 34 32 32 34 nan nan nan nan nan nan nan nan nan nan nan nan nan nan nan nan nan nan nan nan nan nan nan nan nan
nan nan nan nan nan nan nan nan nan 33 33 35 37 36 35 36 35 34 nan nan nan nan nan nan nan nan nan nan nan nan nan nan nan nan nan nan nan nan nan nan nan nan nan
nan nan nan nan nan nan nan nan nan nan 39 39 37 37 37 39 41 39 nan nan nan nan nan nan nan nan nan nan nan nan nan nan nan nan nan nan nan nan nan nan nan nan nan
nan nan nan nan nan nan nan nan nan nan nan nan nan nan nan nan nan 46 nan nan nan nan nan nan nan nan nan nan nan nan nan nan nan nan nan nan nan nan nan nan nan nan nan
nan nan nan nan nan nan nan nan nan nan nan nan nan nan nan nan nan nan nan nan nan nan nan nan nan nan nan nan nan nan nan nan nan nan nan nan nan nan nan nan nan nan nan
nan nan nan nan nan nan nan nan nan nan nan nan nan nan nan nan nan nan nan nan nan nan nan nan nan nan nan nan nan nan nan nan nan nan nan nan nan nan nan nan nan nan nan
nan nan nan nan nan nan nan nan nan nan nan nan nan nan nan nan nan nan nan nan nan nan nan nan nan nan nan nan nan nan nan nan nan nan nan nan nan nan nan nan nan nan nan
nan nan nan nan nan nan nan nan nan nan nan nan nan nan nan nan nan nan nan nan nan nan nan nan nan nan nan nan nan nan nan nan nan nan nan nan nan nan nan nan nan nan nan
nan nan nan nan nan nan nan nan nan nan nan nan nan nan nan nan nan nan nan nan nan nan nan nan nan nan nan nan nan nan nan nan nan nan nan nan nan nan nan nan nan nan nan
nan nan nan nan nan nan nan nan nan nan nan nan nan nan nan nan nan nan nan nan nan nan nan nan nan nan nan nan nan nan nan nan nan nan nan nan nan nan nan nan nan nan nan
nan nan nan nan nan nan nan nan nan nan nan nan nan nan nan nan nan nan nan nan nan nan nan nan nan nan nan nan nan nan nan nan nan nan nan nan nan nan nan nan nan nan nan
nan nan nan nan nan nan nan nan nan nan nan nan nan nan nan nan nan nan nan nan nan nan nan nan nan nan nan nan nan nan nan nan nan nan nan nan nan nan nan nan nan nan nan
Wind_Direction
60 34 30 16 13 12 10 348 276 258 257 264 266 266 269 275 285 289 291 286 281 266 261 nan nan nan nan nan nan nan 259 257 256 257 257 260 265 262 254 246 243 240 244
4 10 8 11 13 13 8 5 355 299 271 272 277 276 280 276 271 269 274 280 276 267 267 nan nan nan nan nan nan nan nan nan nan nan nan nan 255 nan nan 241 237 237 233
7 360 352 358 359 1 1 360 359 356 345 313 297 293 292 288 282 272 272 289 279 279 273 nan nan nan nan nan nan nan nan nan nan nan nan nan nan nan nan nan 240 nan nan
359 359 0 353 345 348 346 344 343 350 347 333 314 297 286 279 280 273 271 283 285 283 277 nan nan nan nan nan nan nan nan nan nan nan nan nan nan 248 246 nan nan nan nan
346 352 357 358 359 351 337 331 333 334 330 327 323 311 294 287 281 285 275 268 271 267 255 nan nan nan nan nan nan nan nan nan nan nan nan 236 234 249 246 nan nan nan nan
329 332 341 351 352 353 348 332 323 325 324 323 320 319 311 295 278 276 277 284 278 260 251 nan nan nan nan nan nan nan nan nan nan nan nan nan 238 257 nan nan nan nan nan
332 325 320 338 341 345 343 339 336 334 325 316 313 317 310 296 290 284 276 260 260 260 nan nan nan nan nan nan nan nan nan nan nan nan nan nan nan nan nan nan 257 nan nan
nan 329 321 327 326 329 332 334 338 338 337 330 318 309 301 299 293 289 284 280 258 nan nan nan nan nan nan nan nan nan nan nan nan nan nan nan nan nan nan nan nan nan nan
318 326 321 318 321 321 319 317 318 323 325 324 323 320 310 300 292 279 274 nan nan nan nan nan nan nan nan nan nan nan nan nan nan nan nan nan nan nan nan nan nan nan nan
nan nan 308 310 330 334 312 309 305 303 304 305 294 291 301 300 298 294 282 nan nan nan nan nan nan nan nan nan nan nan nan nan nan nan nan nan nan nan nan nan nan nan nan
nan nan nan 296 306 307 325 304 307 301 299 296 291 291 287 272 283 289 286 285 nan nan nan nan nan nan nan nan nan nan nan nan nan nan nan nan nan nan nan nan nan nan nan
nan nan nan nan 284 293 292 288 284 284 277 276 278 277 274 277 280 281 277 277 nan nan nan nan nan nan nan nan nan nan nan nan nan nan nan nan nan nan nan nan nan nan nan
nan nan nan nan nan 288 290 285 284 283 279 272 271 274 269 267 268 269 270 269 nan nan 270 nan nan nan nan nan nan nan nan nan nan nan nan nan nan nan nan nan nan nan nan
nan nan nan nan nan nan nan 289 281 280 283 285 284 280 279 275 272 269 269 nan nan nan nan nan nan nan nan nan nan nan nan nan nan nan nan nan nan nan nan nan nan nan nan
nan nan nan nan nan nan nan nan 279 278 276 278 278 282 280 281 282 280 nan nan nan nan nan nan nan nan nan nan nan nan nan nan nan nan nan nan nan nan nan nan nan nan nan
nan nan nan nan nan nan nan nan nan 277 272 271 269 270 275 275 275 276 nan nan nan nan nan nan nan nan nan nan nan nan nan nan nan nan nan nan nan nan nan nan nan nan nan
nan nan nan nan nan nan nan nan nan nan 272 268 264 262 265 269 273 271 nan nan nan nan nan nan nan nan nan nan nan nan nan nan nan nan nan nan nan nan nan nan nan nan nan
nan nan nan nan nan nan nan nan nan nan nan nan nan nan nan nan nan 267 nan nan nan nan nan nan nan nan nan nan nan nan nan nan nan nan nan nan nan nan nan nan nan nan nan
nan nan nan nan nan nan nan nan nan nan nan nan nan nan nan nan nan nan nan nan nan nan nan nan nan nan nan nan nan nan nan nan nan nan nan nan nan nan nan nan nan nan nan
nan nan nan nan nan nan nan nan nan nan nan nan nan nan nan nan nan nan nan nan nan nan nan nan nan nan nan nan nan nan nan nan nan nan nan nan nan nan nan nan nan nan nan
nan nan nan nan nan nan nan nan nan nan nan nan nan nan nan nan nan nan nan nan nan nan nan nan nan nan nan nan nan nan nan nan nan nan nan nan nan nan nan nan nan nan nan
nan nan nan nan nan nan nan nan nan nan nan nan nan nan nan nan nan nan nan nan nan nan nan nan nan nan nan nan nan nan nan nan nan nan nan nan nan nan nan nan nan nan nan
nan nan nan nan nan nan nan nan nan nan nan nan nan nan nan nan nan nan nan nan nan nan nan nan nan nan nan nan nan nan nan nan nan nan nan nan nan nan nan nan nan nan nan
nan nan nan nan nan nan nan nan nan nan nan nan nan nan nan nan nan nan nan nan nan nan nan nan nan nan nan nan nan nan nan nan nan nan nan nan nan nan nan nan nan nan nan
nan nan nan nan nan nan nan nan nan nan nan nan nan nan nan nan nan nan nan nan nan nan nan nan nan nan nan nan nan nan nan nan nan nan nan nan nan nan nan nan nan nan nan
nan nan nan nan nan nan nan nan nan nan nan nan nan nan nan nan nan nan nan nan nan nan nan nan nan nan nan nan nan nan nan nan nan nan nan nan nan nan nan nan nan nan nan